User: anonymous   Login
Location: Unspecified
(0.0000°N, 0.0000°E)
Time: 04:19:15
(UTC+00:00)
Language:

EUTE 9B - Orbit

View from above orbital plane
View from above orbital plane
View from above satellite
View from above satellite

Ground track
Ground track

The orbit data is extracted from the following two-line orbital elements,

1 41310U 16005A   22176.54326751  .00000068  00000-0  00000-0 0  9996
2 41310   0.0635  76.3544 0000855  81.3888 320.4636  1.00272891 23557
Epoch (UTC): 25 June 2022 13:02:18
Eccentricity: 0.0000855
inclination: 0.0635°
perigee height: 35782 km
apogee height: 35789 km
right ascension of ascending node: 76.3544°
argument of perigee: 81.3888°
revolutions per day: 1.00272891
mean anomaly at epoch: 320.4636°
orbit number at epoch: 2355

The dashed part of the orbit path shows where the satellite is in the earth's shadow,  

DLR